Pauma (217, PY1) Station Data

Red Flag Warning: No
Fire Weather Zone: 250
SDGE Region: North East
Lat/Lon: 33.312/-117.003

Observations

Time Wind Speed/Gust Temp(F) RH Fuel Moist Fuel Temp(F) Dewpt(F) Tmax(F) Tmin(F) Accum Precip 10-min Precip SL Press(mb)
2/27 11:40pm 255 1 G 3 52° 96% - - 51° 57.2° 41.3° - - -
2/27 11:20pm 7 2 G 2 52° 96% - - 51° 57.2° 41.3° - - -
2/27 11:10pm 36 3 G 4 52° 96% - - 51° 57.2° 41.3° - - -
2/27 11:00pm 28 2 G 4 52° 96% - - 51° 57.2° 41.3° - - -
2/27 10:50pm 227 1 G 3 52° 96% - - 51° 57.2° 41.3° - - -
2/27 10:40pm 186 2 G 4 52° 96% - - 51° 57.2° 41.3° - - -
2/27 10:30pm 182 2 G 4 52° 96% - - 51° 57.2° 41.3° - - -
2/27 10:20pm 229 1 G 4 52° 97% - - 51° 57.2° 41.3° - - -
2/27 10:10pm 312 2 G 2 52° 97% - - 51° 57.2° 41.3° - - -
2/27 10:00pm 26 2 G 3 52° 97% - - 51° 57.2° 41.3° - - -
2/27 9:50pm 57 1 G 3 52° 97% - - 51° 57.2° 41.3° - - -
2/27 9:40pm 28 2 G 3 52° 97% - - 51° 57.2° 41.3° - - -
2/27 9:30pm 283 3 G 4 52° 97% - - 51° 57.2° 41.3° - - -
2/27 9:20pm 284 3 G 7 52° 97% - - 52° 57.2° 41.3° - - -
2/27 9:10pm 271 1 G 7 53° 96% - - 52° 57.2° 41.3° - - -
2/27 9:00pm 259 1 G 2 53° 96% - - 52° 57.2° 41.3° - - -
2/27 8:50pm 102 1 G 2 53° 96% - - 52° 57.2° 41.3° - - -
2/27 8:40pm 125 1 G 3 53° 96% - - 52° 57.2° 41.3° - - -
2/27 8:30pm 147 1 G 3 53° 95% - - 52° 57.2° 41.3° - - -
2/27 8:20pm 213 1 G 2 53° 95% - - 52° 57.2° 41.3° - - -
2/27 8:10pm 224 1 G 2 53° 95% - - 52° 57.2° 41.3° - - -
2/27 8:00pm 355 2 G 4 53° 94% - - 52° 57.2° 41.3° - - -
2/27 7:50pm 7 0 G 4 54° 93% - - 52° 57.2° 41.3° - - -
2/27 7:40pm 237 3 G 3 54° 91% - - 51° 57.2° 41.3° - - -
2/27 7:30pm 138 4 G 10 54° 90% - - 51° 57.2° 41.3° - - -
2/27 7:20pm 129 5 G 10 54° 89% - - 51° 57.2° 41.3° - - -
2/27 7:10pm 118 5 G 14 54° 91% - - 52° 57.2° 41.3° - - -
2/27 7:00pm 90 4 G 7 54° 92% - - 52° 57.2° 41.3° - - -
2/27 6:50pm 111 2 G 8 54° 91% - - 51° 57.2° 41.3° - - -
2/27 6:40pm 171 4 G 9 55° 88% - - 51° 57.2° 41.3° - - -
2/27 6:30pm 146 5 G 12 55° 86% - - 51° 57.2° 41.3° - - -
2/27 6:20pm 174 6 G 15 55° 86% - - 51° 57.2° 41.3° - - -
2/27 6:10pm 157 5 G 22 55° 85% - - 51° 57.2° 41.3° - - -
2/27 6:00pm 157 4 G 11 55° 86% - - 51° 57.2° 41.3° - - -
2/27 5:50pm 184 4 G 15 55° 87% - - 51° 57.2° 41.3° - - -
2/27 5:40pm 197 2 G 11 55° 89% - - 52° 57.2° 41.3° - - -
2/27 5:30pm 278 2 G 7 55° 91% - - 52° 57.2° 41.3° - - -
2/27 5:20pm 47 2 G 7 54° 92% - - 52° 57.2° 41.3° - - -
2/27 5:10pm 108 4 G 5 55° 92% - - 52° 57.2° 41.3° - - -
2/27 5:00pm 112 5 G 8 55° 91% - - 52° 57.2° 41.3° - - -
2/27 4:50pm 150 5 G 10 55° 89% - - 52° 57.2° 41.3° - - -
2/27 4:40pm 177 5 G 13 55° 87% - - 52° 57.2° 41.3° - - -
2/27 4:30pm 174 6 G 13 56° 85% - - 51° 57.2° 41.3° - - -
2/27 4:20pm 152 4 G 18 56° 87% - - 52° 57.2° 41.3° - - -
2/27 4:10pm 152 5 G 11 55° 90% - - 52° 57.2° 41.3° - - -
2/27 4:00pm 138 5 G 11 55° 89% - - 52° 57.2° 41.3° - - -
2/27 3:50pm 126 6 G 8 55° 89% - - 52° 57.2° 41.3° - - -
2/27 3:40pm 131 6 G 12 55° 89% - - 52° 57.2° 41.3° - - -
2/27 3:30pm 139 6 G 10 55° 90% - - 52° 57.2° 41.3° - - -
2/27 3:20pm 163 7 G 13 56° 89% - - 52° 57.2° 41.3° - - -
2/27 3:10pm 158 6 G 13 56° 89% - - 53° 57.2° 41.3° - - -
2/27 3:00pm 175 7 G 17 56° 88% - - 52° 57.2° 41.3° - - -
2/27 2:50pm 168 7 G 17 56° 87% - - 52° 57.2° 41.3° - - -
2/27 2:40pm 170 6 G 12 56° 87% - - 53° 57.2° 41.3° - - -
2/27 2:30pm 179 5 G 18 56° 89% - - 53° 57.2° 41.3° - - -
2/27 2:20pm 161 6 G 14 56° 90% - - 53° 57.2° 41.3° - - -
2/27 2:10pm 152 6 G 15 56° 89% - - 53° 57.2° 41.3° - - -
2/27 2:00pm 188 6 G 11 56° 89% - - 53° 57.2° 41.3° - - -
2/27 1:50pm 168 7 G 12 56° 89% - - 53° 57.2° 41.3° - - -
2/27 1:40pm 155 6 G 15 56° 91% - - 53° 57.2° 41.3° - - -
2/27 1:30pm 118 8 G 11 55° 93% - - 53° 57.2° 41.3° - - -
2/27 1:20pm 118 8 G 14 55° 93% - - 53° 57.2° 41.3° - - -
2/27 1:10pm 112 7 G 12 55° 94% - - 53° 57.2° 41.3° - - -
2/27 1:00pm 107 6 G 10 54° 94% - - 53° 57.2° 41.3° - - -
2/27 12:50pm 105 6 G 9 54° 93% - - 53° 57.2° 41.3° - - -
2/27 12:40pm 102 6 G 9 54° 93% - - 52° 57.2° 41.3° - - -
2/27 12:30pm 121 6 G 10 55° 92% - - 52° 57.2° 41.3° - - -
2/27 12:20pm 94 6 G 9 55° 92% - - 52° 57.2° 41.3° - - -
2/27 12:10pm 100 6 G 10 55° 92% - - 52° 57.2° 41.3° - - -
2/27 12:00pm 102 6 G 10 55° 93% - - 52° 57.2° 41.3° - - -
2/27 11:50am 125 4 G 9 55° 93% - - 52° 57.2° 41.3° - - -
2/27 11:40am 141 7 G 7 55° 90% - - 52° 57.2° 41.3° - - -
2/27 11:30am 165 9 G 17 56° 88% - - 52° 57.2° 41.3° - - -
2/27 11:20am 159 9 G 15 56° 87% - - 52° 57.2° 41.3° - - -
2/27 11:10am 156 8 G 14 57° 85% - - 52° 57.2° 41.3° - - -
2/27 11:00am 161 7 G 15 57° 86% - - 53° 57.1° 41.3° - - -
2/27 10:50am 152 5 G 14 56° 89% - - 53° 56.9° 41.3° - - -
2/27 10:40am 131 5 G 10 56° 93% - - 54° 56.4° 41.3° - - -
2/27 10:30am 151 5 G 13 55° 97% - - 54° 55.9° 41.3° - - -
2/27 10:20am 149 3 G 10 53° 98% - - 53° 54.9° 41.3° - - -
2/27 10:10am 140 0 G 8 51° 98% - - 50° 52° 41.3° - - -
2/27 10:00am 182 0 G 3 50° 97% - - 49° 50.7° 41.3° - - -
2/27 9:50am 20 1 G 2 50° 97% - - 49° 50.2° 41.3° - - -
2/27 9:40am 302 1 G 2 49° 97% - - 49° 49.7° 41.3° - - -
2/27 9:30am 127 1 G 3 49° 97% - - 48° 49.6° 41.3° - - -
2/27 9:20am 105 0 G 3 49° 97% - - 48° 49.1° 41.3° - - -
2/27 9:10am 135 0 G 3 48° 97% - - 48° 48.9° 41.3° - - -
2/27 9:00am 202 1 G 2 48° 97% - - 47° 48.6° 41.3° - - -
2/27 8:50am 239 1 G 2 48° 97% - - 47° 48.3° 41.3° - - -
2/27 8:40am 111 0 G 2 48° 97% - - 47° 48.2° 41.3° - - -
2/27 8:30am 294 0 G 2 47° 97% - - 47° 47.9° 41.3° - - -
2/27 8:20am 307 0 G 2 47° 97% - - 47° 47.9° 41.3° - - -
2/27 8:10am 55 0 G 2 47° 97% - - 46° 47.7° 41.3° - - -
2/27 8:00am 107 1 G 2 47° 97% - - 46° 47.6° 41.3° - - -
2/27 7:50am 140 0 G 2 47° 97% - - 46° 47.4° 41.3° - - -
2/27 7:40am 212 0 G 2 47° 97% - - 46° 47° 41.3° - - -
2/27 7:30am 143 1 G 2 46° 97% - - 46° 47° 41.3° - - -
2/27 7:20am 220 1 G 3 46° 97% - - 46° 46.7° 41.3° - - -
2/27 7:10am 348 1 G 2 46° 97% - - 45° 46.7° 41.3° - - -
2/27 7:00am 4 2 G 2 46° 97% - - 45° 46.6° 41.3° - - -
2/27 6:50am 293 2 G 3 46° 97% - - 45° 46.5° 41.3° - - -
2/27 6:40am 245 1 G 4 46° 97% - - 45° 46.5° 41.3° - - -
2/27 6:30am 110 1 G 1 46° 97% - - 45° 46.4° 41.3° - - -
2/27 6:20am 63 1 G 2 46° 97% - - 45° 46.4° 41.3° - - -
2/27 6:10am 110 1 G 2 46° 97% - - 45° 46.2° 41.3° - - -
2/27 6:00am 104 1 G 2 46° 97% - - 45° 46° 41.3° - - -
2/27 5:50am 99 2 G 3 45° 97% - - 45° 45.9° 41.3° - - -
2/27 5:40am 116 3 G 4 45° 97% - - 44° 45.8° 41.3° - - -
2/27 5:30am 141 2 G 5 45° 97% - - 44° 45.8° 41.3° - - -
2/27 5:20am 100 2 G 4 45° 97% - - 44° 45.7° 41.3° - - -
2/27 5:10am 53 1 G 3 45° 97% - - 44° 45.7° 41.3° - - -
2/27 5:00am 160 1 G 2 45° 97% - - 44° 45.7° 41.3° - - -
2/27 4:50am 215 1 G 3 45° 97% - - 44° 45.7° 41.3° - - -
2/27 4:40am 343 1 G 2 45° 96% - - 44° 45.7° 41.3° - - -
2/27 4:30am 338 1 G 3 45° 96% - - 44° 45.7° 41.3° - - -
2/27 4:20am 297 1 G 2 45° 96% - - 44° 45.7° 41.3° - - -
2/27 4:10am 125 0 G 1 45° 96% - - 43° 45.7° 41.3° - - -
2/27 4:00am 130 0 G 1 44° 96% - - 43° 45.7° 41.3° - - -
2/27 3:50am 0 0 G 0 44° 96% - - 43° 45.7° 41.3° - - -
2/27 3:40am 356 0 G 1 44° 96% - - 43° 45.7° 41.3° - - -
2/27 3:30am 310 1 G 2 44° 95% - - 43° 45.7° 41.3° - - -
2/27 3:20am 260 0 G 2 44° 95% - - 43° 45.7° 41.3° - - -
2/27 3:10am 0 0 G 0 44° 95% - - 43° 45.7° 41.3° - - -
2/27 3:00am 290 0 G 1 44° 94% - - 43° 45.7° 41.3° - - -
2/27 2:50am 282 1 G 2 44° 94% - - 43° 45.7° 41.3° - - -
2/27 2:40am 278 0 G 2 44° 93% - - 42° 45.7° 41.3° - - -
2/27 2:30am 33 0 G 1 44° 93% - - 42° 45.7° 41.3° - - -
2/27 2:20am 47 1 G 3 45° 92% - - 42° 45.7° 41.3° - - -
2/27 2:10am 233 2 G 3 45° 90% - - 42° 45.7° 41.3° - - -
2/27 2:00am 237 1 G 3 45° 89% - - 42° 45.7° 41.3° - - -
2/27 1:50am 282 1 G 2 45° 88% - - 41° 45.7° 41.3° - - -
2/27 1:40am 357 1 G 2 45° 85% - - 41° 45.7° 41.3° - - -
2/27 1:30am 40 1 G 2 45° 83% - - 40° 45.3° 41.3° - - -
2/27 1:20am 8 0 G 2 44° 84% - - 40° 44.7° 41.3° - - -
2/27 1:10am 259 1 G 1 43° 87% - - 40° 44.1° 41.3° - - -
2/27 1:00am 284 2 G 4 43° 88% - - 39° 43.9° 41.3° - - -
2/27 12:50am 277 1 G 3 43° 87% - - 39° 43.9° 41.3° - - -
2/27 12:40am 120 1 G 4 43° 88% - - 40° 43.9° 41.3° - - -
2/27 12:30am 242 1 G 4 42° 91% - - 39° 43.9° 41.3° - - -
2/27 12:20am 18 1 G 4 42° 91% - - 40° 43.9° 41.6° - - -
2/27 12:10am 298 1 G 2 43° 88% - - 40° 43.9° 42.1° - - -
2/27 12:00am 346 1 G 2 43° 88% - - 40° 55.6° 42.9° - - -
2/26 11:50pm 316 1 G 2 43° 88% - - 40° 55.6° 42.9° - - -
2/26 11:40pm 314 1 G 2 44° 86% - - 40° 55.6° 43.1° - - -
2/26 11:30pm 226 1 G 4 44° 85% - - 40° 55.6° 43.6° - - -
2/26 11:20pm 111 0 G 2 44° 86% - - 40° 55.6° 43.6° - - -
2/26 11:10pm 37 0 G 2 44° 88% - - 41° 55.6° 43.6° - - -
2/26 11:00pm 17 1 G 2 44° 87% - - 41° 55.6° 44° - - -
2/26 10:50pm 112 1 G 2 46° 84% - - 41° 55.6° 44.8° - - -
2/26 10:40pm 116 3 G 4 46° 82% - - 41° 55.6° 45.3° - - -
2/26 10:30pm 118 3 G 5 47° 83% - - 42° 55.6° 45.3° - - -
2/26 10:20pm 134 2 G 5 48° 79% - - 41° 55.6° 45.3° - - -
2/26 10:10pm 123 2 G 4 49° 78% - - 42° 55.6° 45.3° - - -
2/26 10:00pm 156 3 G 4 49° 79% - - 42° 55.6° 45.3° - - -
2/26 9:50pm 160 3 G 5 48° 84% - - 43° 55.6° 45.3° - - -
2/26 9:40pm 140 1 G 4 48° 86% - - 44° 55.6° 45.3° - - -
2/26 9:30pm 164 1 G 2 48° 86% - - 43° 55.6° 45.3° - - -
2/26 9:20pm 248 2 G 3 48° 85% - - 43° 55.6° 45.3° - - -
2/26 9:10pm 138 2 G 4 48° 84% - - 43° 55.6° 45.3° - - -
2/26 9:00pm 22 1 G 4 47° 86% - - 43° 55.6° 45.3° - - -
2/26 8:50pm 318 1 G 2 47° 86% - - 43° 55.6° 45.3° - - -
2/26 8:40pm 254 1 G 2 47° 85% - - 43° 55.6° 45.3° - - -
2/26 8:30pm 160 2 G 4 47° 86% - - 43° 55.6° 45.3° - - -
2/26 8:20pm 126 3 G 5 47° 86% - - 43° 55.6° 45.3° - - -
2/26 8:10pm 122 4 G 5 47° 85% - - 42° 55.6° 45.3° - - -
2/26 8:00pm 125 4 G 5 46° 86% - - 42° 55.6° 45.3° - - -
2/26 7:50pm 142 4 G 5 46° 88% - - 42° 55.6° 45.3° - - -
2/26 7:40pm 138 4 G 5 47° 85% - - 42° 55.6° 45.7° - - -
2/26 7:30pm 141 3 G 6 48° 80% - - 42° 55.6° 45.8° - - -
2/26 7:20pm 145 3 G 4 49° 78% - - 42° 55.6° 45.8° - - -
2/26 7:10pm 137 2 G 5 50° 77% - - 43° 55.6° 45.8° - - -
2/26 7:00pm 113 1 G 4 50° 75% - - 43° 55.6° 45.8° - - -
2/26 6:50pm 220 1 G 7 50° 79% - - 44° 55.6° 45.8° - - -
2/26 6:40pm 214 2 G 8 50° 82% - - 45° 55.6° 45.8° - - -
2/26 6:30pm 251 2 G 4 51° 80% - - 45° 55.6° 45.8° - - -
2/26 6:20pm 210 2 G 4 51° 80% - - 45° 55.6° 45.8° - - -
2/26 6:10pm 247 3 G 6 51° 81% - - 45° 55.6° 45.8° - - -
2/26 6:00pm 254 4 G 7 51° 81% - - 45° 55.6° 45.8° - - -
2/26 5:50pm 253 5 G 8 52° 80% - - 46° 55.6° 45.8° - - -
2/26 5:40pm 236 5 G 7 52° 78% - - 46° 55.6° 45.8° - - -
2/26 5:30pm 239 6 G 10 53° 77% - - 46° 55.6° 45.8° - - -
2/26 5:20pm 203 6 G 12 53° 74% - - 45° 55.6° 45.8° - - -
2/26 5:10pm 219 7 G 17 53° 73% - - 45° 55.6° 45.8° - - -
2/26 5:00pm 211 9 G 14 54° 72% - - 45° 55.6° 45.8° - - -